Weather History for Crystal River, FL

Change the Weather History Date:

Monday, March 4, 2013

  Actual Average (KBKV) Record (KBKV)
Temperature  
Mean Temperature 44 °F -  
Max Temperature 62 °F 73 °F 82 °F (1997)
Min Temperature 26 °F 49 °F 30 °F (2013)
Degree Days  
Heating Degree Days 21    
Moisture  
Dew Point 27 °F    
Average Humidity 61    
Maximum Humidity 93    
Minimum Humidity 15    
Precipitation  
Precipitation 0.00 in - - ()
Sea Level Pressure  
Sea Level Pressure 30.19 in    
Wind  
Wind Speed 2 mph (NW)    
Max Wind Speed 10 mph    
Max Gust Speed -    
Visibility 10 miles    
Events      
Averages and records for this station are not official NWS values.
T = Trace of Precipitation, MM = Missing Value Source: NWS Daily Summary

Daily Weather History Graph

Daily Weather History Graph

Search for Another Location

Airport:

Trip Planner

Search our weather history database for the weather conditions in past years. The results will help you decide how hot, cold, wet, or windy it might be!

Date:

Astronomy

Mar. 04, 2013 Rise Set
Actual Time 6:52 AM EST 6:32 PM EST
Civil Twilight 6:28 AM EST 6:55 PM EST
Nautical Twilight 6:00 AM EST 7:23 PM EST
Astronomical Twilight 5:33 AM EST 7:50 PM EST
Moon 12:41 AM EST (3/4) 11:32 AM EST (3/4)
Length of Visible Light 12h 27m
Length of Day
11h 40m
Waning Gibbous, 52% of the Moon is Illuminated
Mar 4
Waning Gibbous
Mar 4
Last Quarter
Mar 11
New
Mar 19
First Quarter
Mar 27
Full

Hourly Weather History & Observations

Time (EST) Temp. Windchill Dew Point Humidity Pressure Visibility Wind Dir Wind Speed Gust Speed Precip Events Conditions
12:15 AM 32.0 °F - 28.4 °F 87% 30.18 in 10.0 mi Calm Calm - N/A   Clear
12:35 AM 30.2 °F - 28.4 °F 93% 30.18 in 10.0 mi Calm Calm - N/A   Clear
12:55 AM 30.2 °F - 26.6 °F 86% 30.19 in 10.0 mi Calm Calm - N/A   Clear
1:15 AM 30.2 °F - 28.4 °F 93% 30.19 in 10.0 mi Calm Calm - N/A   Clear
1:35 AM 30.2 °F - 26.6 °F 86% 30.19 in 10.0 mi Calm Calm - N/A   Clear
1:55 AM 30.2 °F - 26.6 °F 86% 30.19 in 10.0 mi Calm Calm - N/A   Clear
2:15 AM 30.2 °F - 26.6 °F 86% 30.18 in 10.0 mi Calm Calm - N/A   Clear
2:35 AM 30.2 °F - 26.6 °F 86% 30.18 in 10.0 mi Calm Calm - N/A   Clear
2:55 AM 28.4 °F - 26.6 °F 93% 30.17 in 10.0 mi Calm Calm - N/A   Clear
3:15 AM 28.4 °F - 26.6 °F 93% 30.17 in 10.0 mi Calm Calm - N/A   Clear
3:35 AM 28.4 °F - 26.6 °F 93% 30.17 in 10.0 mi Calm Calm - N/A   Clear
3:55 AM 28.4 °F - 26.6 °F 93% 30.17 in 10.0 mi Calm Calm - N/A   Clear
4:15 AM 28.4 °F - 26.6 °F 93% 30.17 in 10.0 mi Calm Calm - N/A   Clear
4:35 AM 28.4 °F - 26.6 °F 93% 30.17 in 10.0 mi Calm Calm - N/A   Clear
4:55 AM 28.4 °F - 26.6 °F 93% 30.17 in 10.0 mi Calm Calm - N/A   Clear
5:15 AM 28.4 °F - 26.6 °F 93% 30.17 in 10.0 mi Calm Calm - N/A   Clear
5:35 AM 28.4 °F - 26.6 °F 93% 30.19 in 10.0 mi Calm Calm - N/A   Clear
5:55 AM 28.4 °F - 26.6 °F 93% 30.19 in 10.0 mi Calm Calm - N/A   Clear
6:15 AM 26.6 °F - 24.8 °F 93% 30.20 in 10.0 mi Calm Calm - N/A   Clear
6:35 AM 26.6 °F - 24.8 °F 93% 30.21 in 10.0 mi Calm Calm - N/A   Clear
6:55 AM 28.4 °F - 24.8 °F 86% 30.22 in 10.0 mi Calm Calm - N/A   Clear
7:15 AM 28.4 °F - 26.6 °F 93% 30.23 in 10.0 mi Calm Calm - N/A   Clear
7:35 AM 30.2 °F - 26.6 °F 86% 30.24 in 10.0 mi Calm Calm - N/A   Clear
7:55 AM 32.0 °F - 28.4 °F 87% 30.24 in 10.0 mi Calm Calm - N/A   Clear
8:15 AM 35.6 °F - 30.2 °F 81% 30.24 in 10.0 mi Calm Calm - N/A   Clear
8:35 AM 42.8 °F 41.1 °F 28.4 °F 57% 30.25 in 10.0 mi NNE 3.5 mph - N/A   Clear
8:55 AM 44.6 °F 43.1 °F 26.6 °F 49% 30.25 in 10.0 mi NNE 3.5 mph - N/A   Clear
9:15 AM 46.4 °F 45.2 °F 23.0 °F 40% 30.25 in 10.0 mi North 3.5 mph - N/A   Clear
9:35 AM 50.0 °F - 19.4 °F 30% 30.25 in 10.0 mi NNE 5.8 mph - N/A   Clear
9:55 AM 51.8 °F - 17.6 °F 26% 30.25 in 10.0 mi NNE 6.9 mph - N/A   Clear
10:15 AM 51.8 °F - 17.6 °F 26% 30.24 in 10.0 mi NE 6.9 mph - N/A   Clear
10:35 AM 53.6 °F - 17.6 °F 24% 30.24 in 10.0 mi ENE 5.8 mph - N/A   Clear
10:55 AM 53.6 °F - 15.8 °F 22% 30.24 in 10.0 mi North 6.9 mph - N/A   Clear
11:15 AM 55.4 °F - 15.8 °F 21% 30.24 in 10.0 mi North 5.8 mph - N/A   Clear
11:35 AM 55.4 °F - 15.8 °F 21% 30.23 in 10.0 mi NNW 3.5 mph - N/A   Clear
11:55 AM 57.2 °F - 12.2 °F 17% 30.22 in 10.0 mi Calm Calm - N/A   Clear
12:15 PM 59.0 °F - 15.8 °F 19% 30.21 in 10.0 mi Calm Calm - N/A   Clear
12:35 PM 59.0 °F - 14.0 °F 17% 30.20 in 10.0 mi NNE 4.6 mph - N/A   Clear
12:55 PM 60.8 °F - 14.0 °F 16% 30.19 in 10.0 mi NNW 6.9 mph - N/A   Clear
1:15 PM 62.6 °F - 14.0 °F 15% 30.18 in 10.0 mi WNW 4.6 mph - N/A   Clear
1:55 PM 62.6 °F - 15.8 °F 16% 30.16 in 10.0 mi West 6.9 mph - N/A   Clear
2:15 PM 60.8 °F - 28.4 °F 29% 30.15 in 10.0 mi WNW 8.1 mph - N/A   Clear
2:35 PM 60.8 °F - 28.4 °F 29% 30.16 in 10.0 mi WNW 10.4 mph - N/A   Clear
2:55 PM 60.8 °F - 28.4 °F 29% 30.16 in 10.0 mi West 9.2 mph - N/A   Clear
3:15 PM 60.8 °F - 26.6 °F 27% 30.15 in 10.0 mi West 9.2 mph - N/A   Clear
3:35 PM 60.8 °F - 26.6 °F 27% 30.15 in 10.0 mi West 6.9 mph - N/A   Clear
3:55 PM 59.0 °F - 26.6 °F 29% 30.15 in 10.0 mi WNW 8.1 mph - N/A   Clear
4:15 PM 59.0 °F - 28.4 °F 31% 30.15 in 10.0 mi West 9.2 mph - N/A   Clear
4:35 PM 59.0 °F - 30.2 °F 34% 30.15 in 10.0 mi West 10.4 mph - N/A   Clear
4:55 PM 57.2 °F - 32.0 °F 38% 30.15 in 10.0 mi WNW 5.8 mph - N/A   Clear
5:15 PM 57.2 °F - 32.0 °F 38% 30.16 in 10.0 mi West 9.2 mph - N/A   Clear
5:35 PM 55.4 °F - 33.8 °F 44% 30.17 in 10.0 mi West 9.2 mph - N/A   Clear
5:55 PM 55.4 °F - 33.8 °F 44% 30.17 in 10.0 mi West 8.1 mph - N/A   Clear
6:15 PM 53.6 °F - 33.8 °F 47% 30.17 in 10.0 mi WNW 3.5 mph - N/A   Clear
6:35 PM 51.8 °F - 33.8 °F 50% 30.17 in 10.0 mi West 3.5 mph - N/A   Clear
6:55 PM 50.0 °F - 35.6 °F 58% 30.17 in 10.0 mi Calm Calm - N/A   Clear
7:15 PM 48.2 °F - 35.6 °F 62% 30.17 in 10.0 mi Calm Calm - N/A   Clear
7:35 PM 46.4 °F - 35.6 °F 66% 30.18 in 10.0 mi Calm Calm - N/A   Clear
7:55 PM 44.6 °F - 35.6 °F 71% 30.18 in 10.0 mi Calm Calm - N/A   Clear
8:15 PM 44.6 °F - 33.8 °F 66% 30.19 in 10.0 mi Calm Calm - N/A   Clear
8:35 PM 42.8 °F - 33.8 °F 70% 30.18 in 10.0 mi Calm Calm - N/A   Clear
8:55 PM 42.8 °F - 33.8 °F 70% 30.18 in 10.0 mi Calm Calm - N/A   Clear
9:35 PM 41.0 °F - 33.8 °F 76% 30.18 in 10.0 mi Calm Calm - N/A   Clear
9:55 PM 39.2 °F - 32.0 °F 75% 30.18 in 10.0 mi Calm Calm - N/A   Clear
10:15 PM 37.4 °F - 32.0 °F 81% 30.18 in 10.0 mi Calm Calm - N/A   Clear
10:35 PM 37.4 °F - 32.0 °F 81% 30.18 in 10.0 mi Calm Calm - N/A   Clear
10:55 PM 39.2 °F - 33.8 °F 81% 30.19 in 10.0 mi Calm Calm - N/A   Clear
11:15 PM 37.4 °F - 32.0 °F 81% 30.18 in 10.0 mi Calm Calm - N/A   Clear
11:35 PM 35.6 °F - 32.0 °F 87% 30.16 in 10.0 mi Calm Calm - N/A   Clear
11:55 PM 35.6 °F - 32.0 °F 87% 30.15 in 10.0 mi Calm Calm - N/A   Clear